Zurück zum Katalog

COSMOS 2251 DEB

AktivLEO
NORAD 36557·DEBRIS·🇷🇺 Russia

Gestartet Jun 16, 1993 von Plesetsk Cosmodrome

Loading…

Nächste Überflüge (nächste 24 Stunden)

TLE

AktuellSource: Space-Track

Epoche: Sep 14, 2026, 10:51 UTC

1 36557U 93036BDT 26257.45262541  .00012341  00000-0  13414-2 0  9994
2 36557  73.9778 297.9680 0020158   4.8750 355.2623 14.87988821379865

Verfolge COSMOS 2251 DEB in Echtzeit mit AllMySat

Download on the App Store